Location: Mercogliano
(40.9167°N, 14.7333°E)
Time: 04:01:01
(UTC+00:00)

Cosmos 1943 - Pass Details

Date: 18 September 2020
Orbit: 833 x 850 km, 71.0° (Epoch: 25 October)

Event Time Altitude Azimuth Distance (km) Brightness Sun altitude
Rises 18:03:46 0° 336° (NNW) 3,399 6.9 -11.9°
Reaches altitude 10° 18:06:13 10° 337° (NNW) 2,463 6.1 -12.4°
Maximum altitude 18:11:53 88° 65° (ENE) 849 3.2 -13.4°
Drops below altitude 10° 18:17:33 10° 157° (SSE) 2,459 5.3 -14.5°
Enters shadow 18:18:44 - 158° (SSE) 2,910 5.6 -14.7°
